Imperial, NE

9:08 AM MDT on April 23, 2017 (GMT -0600)
Imperial Municipal

Weather History for KIML - April, 2013

Change the Weather History Date:

Friday, April 5, 2013

  Actual Average Record
Temperature  
Mean Temperature 58 °F 45 °F  
Max Temperature 76 °F 59 °F 85 °F (1991)
Min Temperature 39 °F 31 °F 17 °F (1920)
Degree Days  
Heating Degree Days 7 20  
Month to date heating degree days 97 102  
Cooling Degree Days 0 0  
Month to date cooling degree days 0 0  
Year to date cooling degree days 0 0  
Growing Degree Days 7 (Base 50)    
Moisture  
Dew Point 30 °F    
Average Humidity 43    
Maximum Humidity 70    
Minimum Humidity 16    
Precipitation  
Precipitation T in 0.03 in 0.64 in (1990)
Sea Level Pressure  
Sea Level Pressure 29.77 in    
Wind  
Wind Speed 8 mph (South)    
Max Wind Speed 35 mph    
Max Gust Speed 47 mph    
Visibility 10 miles    
Events      
T = Trace of Precipitation, MM = Missing Value Source: NWS Daily Summary

Daily Weather History Graph

Daily Weather History Graph

Search for Another Location

Airport or City:

Trip Planner

Search our weather history database for the weather conditions in past years. The results will help you decide how hot, cold, wet, or windy it might be!

Date:

Astronomy

Apr. 05, 2013 Rise Set
Actual Time 6:23 AM MDT 7:15 PM MDT
Civil Twilight 5:55 AM MDT 7:43 PM MDT
Nautical Twilight 5:22 AM MDT 8:16 PM MDT
Astronomical Twilight 4:48 AM MDT 8:50 PM MDT
Moon 3:32 AM MDT (4/5) 2:40 PM MDT (4/5)
Length of Visible Light 13h 47m
Length of Day
12h 52m
Waning Crescent, 23% of the Moon is Illuminated
Apr 5
Waning Crescent
Apr 10
New
Apr 18
First Quarter
Apr 25
Full
May 2
Last Quarter

Hourly Weather History & Observations

Time (MDT) Temp. Windchill Dew Point Humidity Pressure Visibility Wind Dir Wind Speed Gust Speed Precip Events Conditions
12:53 AM 39.9 °F 35.1 °F 30.0 °F 68% 30.02 in 10.0 mi SE 6.9 mph - N/A   Clear
1:53 AM 43.0 °F 40.3 °F 30.9 °F 62% 29.99 in 10.0 mi SE 4.6 mph - N/A   Clear
2:53 AM 48.0 °F - 30.9 °F 52% 29.94 in 10.0 mi South 9.2 mph - N/A   Clear
3:53 AM 46.9 °F - 30.9 °F 54% 29.91 in 10.0 mi South 11.5 mph - N/A   Clear
4:53 AM 46.0 °F 42.5 °F 30.9 °F 56% 29.91 in 10.0 mi SSE 6.9 mph - N/A   Clear
5:53 AM 44.1 °F 41.5 °F 30.9 °F 60% 29.90 in 10.0 mi SE 4.6 mph - N/A   Clear
6:53 AM 39.9 °F - 30.0 °F 68% 29.91 in 10.0 mi Calm Calm - N/A   Clear
7:53 AM 55.0 °F - 30.9 °F 40% 29.89 in 10.0 mi South 10.4 mph - N/A   Clear
8:53 AM 59.0 °F - 28.9 °F 32% 29.88 in 10.0 mi SSW 15.0 mph - N/A   Clear
9:53 AM 59.0 °F - 28.9 °F 32% 29.84 in 10.0 mi SSW 12.7 mph - N/A   Clear
10:53 AM 63.0 °F - 30.0 °F 29% 29.81 in 10.0 mi SSW 9.2 mph - N/A   Clear
11:53 AM 66.9 °F - 28.9 °F 24% 29.78 in 10.0 mi SW 8.1 mph - N/A   Clear
12:53 PM 69.1 °F - 28.9 °F 22% 29.74 in 10.0 mi South 6.9 mph - N/A   Clear
1:53 PM 70.0 °F - 28.0 °F 21% 29.70 in 10.0 mi South 6.9 mph - N/A   Clear
2:53 PM 71.1 °F - 27.0 °F 19% 29.66 in 10.0 mi South 3.5 mph - N/A   Clear
3:53 PM 73.0 °F - 28.0 °F 19% 29.64 in 10.0 mi South 5.8 mph - N/A   Clear
4:53 PM 75.0 °F - 27.0 °F 17% 29.62 in 10.0 mi South 8.1 mph - N/A   Clear
5:53 PM 72.0 °F - 28.0 °F 20% 29.63 in 10.0 mi Calm Calm - N/A   Clear
6:53 PM 64.9 °F - 33.1 °F 31% 29.62 in 10.0 mi SSE 6.9 mph - N/A   Clear
7:53 PM 57.9 °F - 32.0 °F 37% 29.60 in 7.0 mi South 4.6 mph - N/A   Clear
8:53 PM 57.0 °F - 32.0 °F 39% 29.60 in 8.0 mi Calm Calm - N/A   Clear
9:53 PM 51.1 °F - 33.1 °F 50% 29.62 in 10.0 mi Calm Calm - N/A   Clear
10:53 PM 61.0 °F - 34.0 °F 36% 29.61 in 10.0 mi NNW 10.4 mph - N/A   Scattered Clouds
11:53 PM 61.0 °F - 37.0 °F 41% 29.66 in 10.0 mi WNW 20.7 mph 33.4 mph 0.00 in   Overcast